DW6866 Weather Reports


Display with metric or nautical units.
time (UTC)temp
F
wind
direction
speed
MPH
gust
MPH
rain 1hr
in
rain 24hr
in
rain mn
in
humidity
%
barometer
mb
20260505041625 59 255 0.0 3.0 0.00 0.00 0.00 76 1010.7
20260505040115 60 233 1.0 8.0 0.00 0.00 0.00 73 1010.5
20260505034627 61 137 0.0 5.0 0.00 0.00 0.00 71 1010.3
20260505031625 64 204 0.0 3.0 0.00 0.00 0.00 66 1009.9
20260505030135 66 240 2.0 8.0 0.00 0.00 0.00 63 1009.7
20260505024640 67 297 2.0 7.0 0.00 0.00 0.00 62 1009.5
20260505023201 68 295 0.0 3.0 0.00 0.00 0.00 60 1009.4
20260505021623 70 328 1.0 3.0 0.00 0.00 0.00 57 1009.2
20260505020118 71 268 1.0 5.0 0.00 0.00 0.00 54 1009.3
20260505014626 73 256 1.0 7.0 0.00 0.00 0.00 51 1009.3
20260505013140 74 309 2.0 6.0 0.00 0.00 0.00 50 1009.2
20260505011643 74 351 3.0 9.0 0.00 0.00 0.00 50 1009.3
20260505010122 75 347 7.0 11.0 0.00 0.00 0.00 50 1009.3
20260504221633 78 214 0.0 7.0 0.00 0.00 0.00 47 1009.9
20260504220114 77 306 0.0 6.0 0.00 0.00 0.00 47 1010.0
20260504214620 77 290 0.0 7.0 0.00 0.00 0.00 50 1010.1
20260504213125 77 178 0.0 6.0 0.00 0.00 0.00 47 1010.2
20260504211649 77 300 0.0 7.0 0.00 0.00 0.00 47 1010.2
20260504210117 77 261 1.0 7.0 0.00 0.00 0.00 45 1010.2
20260504204615 78 231 0.0 2.0 0.00 0.00 0.00 44 1010.3
20260504203119 76 302 1.0 5.0 0.00 0.00 0.00 47 1010.5
20260504201625 77 314 0.0 0.0 0.00 0.00 0.00 47 1010.6
20260504200150 76 296 0.0 0.0 0.00 0.00 0.00 48 1010.7
20260504194629 75 217 0.0 7.0 0.00 0.00 0.00 48 1010.7
20260504193114 75 314 1.0 7.0 0.00 0.00 0.00 49 1010.8
20260504191614 74 304 0.0 4.0 0.00 0.00 0.00 49 1010.9
20260504190123 72 359 0.0 5.0 0.00 0.00 0.00 51 1011.1
20260504184625 71 308 3.0 8.0 0.00 0.00 0.00 51 1011.2
20260504183150 71 287 1.0 6.0 0.00 0.00 0.00 52 1011.4
20260504181614 70 321 0.0 5.0 0.00 0.00 0.00 51 1011.3
20260504180118 70 335 0.0 6.0 0.00 0.00 0.00 51 1011.3
20260504174622 69 148 0.0 2.0 0.00 0.00 0.00 52 1011.4
20260504173126 69 256 2.0 6.0 0.00 0.00 0.00 55 1011.4
20260504171627 69 216 0.0 0.0 0.00 0.00 0.00 58 1011.4
20260504170116 67 287 0.0 5.0 0.00 0.00 0.00 61 1011.4
20260504160125 64 345 0.0 0.0 0.00 0.00 0.00 65 1011.1
20260504150125 59 231 0.0 1.0 0.00 0.00 0.00 74 1010.6
20260504140124 51 185 0.0 0.0 0.00 0.00 0.00 89 1010.1
20260504130118 50 185 0.0 0.0 0.00 0.00 0.00 90 1009.4
20260504120132 51 294 0.0 0.0 0.00 0.00 0.00 89 1009.4
20260504110124 51 294 0.0 0.0 0.00 0.00 0.00 87 1009.3
20260504100146 53 294 0.0 0.0 0.00 0.00 0.00 85 1009.0
20260504090118 54 294 0.0 0.0 0.00 0.00 0.00 83 1009.0
20260504081614 56 294 0.0 0.0 0.00 0.00 0.00 80 1009.1
20260504080116 56 294 0.0 0.0 0.00 0.00 0.00 78 1009.1
20260504070115 58 294 0.0 0.0 0.00 0.00 0.00 71 1009.1
20260504060129 60 294 0.0 0.0 0.00 0.00 0.00 67 1008.9
20260504050123 63 294 0.0 0.0 0.00 0.00 0.00 61 1008.9